GAOFEN 2

导读

高分二号(GAOFEN 2)是中国于2014年8月19日8时发射的光学遥感卫星,隶属于中国高分专项工程。它搭载两台高分辨率相机,空间分辨率首次突破米级,达到1米,能为国土、农业、环保、防灾等领域提供精准遥感数据,推动中国遥感应用进入亚米级时代,提升了中国对地观测能力。

基本信息
目录编号:
40118
目录名称:
GAOFEN 2
国际标识:
2014-049A
轨道中心:
EARTH
卫星名称:
GAOFEN 2
卫星全名:
--
卫星状态:
在轨 (已飞行4360 天)
发射日期:
2014-08-19 UTC
国别 :
中国 (CN)
星等 :
--
轨道信息
数据来源 国际轨道数据 AOE轨道数据
星历时间 2026-07-27T23:34:17+0800
6小时前
查看轨道信息
2026-07-28T00:00:00+0800
6小时前
查看轨道信息
半长轴 7004.49km 7004.493km
偏心率 0.0008764 0.0008692
轨道倾角 98.010° 98.009°
近地点辐角 100.331° 101.505°
升交点赤经 272.813° 272.830°
平近点角 259.889° 353.873°
近地点 620.214km 620.267km
远地点 632.492km 632.445km
周期 97.235分钟 97.235分钟
每日圈数 14.809419 14.809409
详细信息
使用方式:
暂无
2D轨道图
3D轨道图
轨道高度分析图
轨道倾角分析图
轨道综合分析图
查看轨道综合分析图